Regional Weather Roundup
Issued by NWS

Home | Current Version | Previous Version | Graphics & Text | Print | Product List | Glossary Off
Versions: 1 2 3 4 5 6 7 8 9 10 11 12 13 14 15 16 17 18 19 20 21 22 23 24 25 26 27 28 29 30 31 32 33 34 35 36 37 38 39 40 41 42 43 44 45 46 47 48 49 50

000
ASUS43 KTOP 261708
RWRKS

WEATHER ROUNDUP FOR KANSAS
NATIONAL WEATHER SERVICE GOODLAND KS
1200 PM CDT TUE JUL 26 2016

NOTE:  "FAIR" INDICATES FEW OR NO CLOUDS BELOW 12,000 FEET WITH NO
SIGNIFICANT WEATHER AND/OR OBSTRUCTIONS TO VISIBILITY.

KSZ001>006-013>018-027>032-041>047-261800-
NORTHWEST KANSAS

CITY           SKY/WX    TMP DP  RH WIND       PRES   REMARKS
GOODLAND       MOSUNNY   79  67  66 S14       30.12F
HAYS           PTSUNNY   79  63  57 SW3       30.09S
HILL CITY      SUNNY     81  68  64 S8        30.09F
RUSSELL        MOSUNNY   82  68  62 VRB5      30.07S
$$

KSZ061>065-074>080-084>089-261800-
SOUTHWEST KANSAS

CITY           SKY/WX    TMP DP  RH WIND       PRES   REMARKS
DODGE CITY     MOSUNNY   80  70  71 E7        30.10F
ELKHART          N/A     81  69  67 SE6         N/A
GARDEN CITY    SUNNY     80  68  66 S6        30.10S
GREAT BEND     PTSUNNY   79  64  61 NW3       30.07F
LIBERAL        SUNNY     84  72  65 E9        30.11F
PRATT          PTSUNNY   78  67  70 CALM      30.09F
$$

KSZ066>073-081>083-090>101-261800-
SOUTHEAST KANSAS

CITY           SKY/WX    TMP DP  RH WIND       PRES   REMARKS
CHANUTE        PTSUNNY   83  73  72 NE8       30.04S
COFFEYVILLE    PTSUNNY   83  75  77 NE5       30.02S
HUTCHINSON     CLOUDY    83  70  64 E3        30.07R
MEDICINE LODGE   N/A     85  69  58 NE10      30.05F
NEWTON         MOSUNNY   83  73  72 E7        30.07S
PARSONS        CLOUDY    83  75  77 VRB3      30.04S
WICHITA INTL   PTSUNNY   84  71  65 E8        30.05R
WICHITA JABRA  PTSUNNY   84  73  69 E10       30.05S
WICHITA MCCONL MOSUNNY   83  72  68 E9        30.05F
WINFIELD       CLOUDY    83  72  69 E13       30.05S
$$

KSZ007>012-019>026-033>040-048>060-102>105-261800-
NORTHEAST KANSAS

CITY           SKY/WX    TMP DP  RH WIND       PRES   REMARKS
CONCORDIA      SUNNY     81  68  64 VRB5      30.08S
EMPORIA        CLOUDY    81  70  69 E10       30.06S
LAWRENCE       PTSUNNY   83  70  64 E9        30.06F
MANHATTAN      SUNNY     83  70  64 E8        30.05F
MARYSVILLE     SUNNY     84  68  58 SE6       30.07S
OLATHE IND     MOSUNNY   84  67  56 E9        30.07F
OLATHE EXE     MOSUNNY   82  67  60 E9        30.07S
SALINA         PTSUNNY   84  70  62 VRB5      30.06S
TOPEKA BILLARD SUNNY     84  68  58 E10       30.06
TOPEKA FORBES  MOSUNNY   84  69  60 E7        30.06F
$$



USA.gov is the U.S. government's official web portal to all federal, state and local government web resources and services.